Location: Laterina
(43.5167°N, 11.7167°E)
Time: 16:40:17
(UTC+00:00)

SPOT 3 Rocket - Pass Details

Date: 24 September 2020
Orbit: 780 x 794 km, 98.8° (Epoch: 25 October)

Event Time Altitude Azimuth Distance (km) Brightness Sun altitude
Exits shadow 18:40:10 27° 80° (E) 1,456 4.4 -17.7°
Maximum altitude 18:40:54 28° 65° (ENE) 1,423 4.5 -17.8°
Drops below altitude 10° 18:45:15 10° 7° (N) 2,344 6.1 -18.5°
Sets 18:47:50 0° 357° (N) 3,278 7.0 -19.0°
